EW6230 Weather Reports


Display with metric or nautical units.
time (UTC)temp
F
wind
direction
speed
MPH
gust
MPH
rain 1hr
in
rain 24hr
in
rain mn
in
humidity
%
barometer
mb
20260901134511 0 0.0 0.0 0.00 0.00 0.00 1005.1
20260901133009 0 0.0 0.0 0.00 0.00 0.00 1005.0
20260901131604 0 0.0 0.0 0.00 0.00 0.00 1005.0
20260901130055 0 0.0 0.0 0.00 0.00 0.00 1004.8
20260901124555 0 0.0 0.0 0.00 0.00 0.00 1005.0
20260901123047 53 4 0.0 1.0 0.00 0.00 0.00 1 1005.0
20260901121545 53 1 0.0 1.0 0.00 0.00 0.00 1 1005.0
20260901120037 53 251 0.0 0.0 0.00 0.00 0.00 1 1005.1
20260901114545 54 251 0.0 1.0 0.00 0.00 0.00 1 1005.2
20260901113028 54 251 0.0 0.0 0.00 0.00 0.00 1 1005.3
20260901111524 55 251 0.0 1.0 0.00 0.00 0.00 1 1005.2
20260901110020 55 330 0.0 2.0 0.00 0.00 0.00 1 1005.3
20260901104515 54 229 0.0 0.0 0.00 0.00 0.00 1 1005.2
20260901103011 54 229 0.0 0.0 0.00 0.00 0.00 1 1005.3
20260901101506 54 229 0.0 0.0 0.00 0.00 0.00 1 1005.3
20260901100001 54 229 0.0 0.0 0.00 0.00 0.00 1 1005.4
20260901094557 54 229 0.0 0.0 0.00 0.00 0.00 1 1005.2
20260901093053 54 229 0.0 0.0 0.00 0.00 0.00 1 1005.3
20260901091553 54 229 0.0 0.0 0.00 0.00 0.00 1 1005.2
20260901090044 54 229 0.0 0.0 0.00 0.00 0.00 1 1005.2
20260901084539 54 229 0.0 0.0 0.00 0.00 0.00 1 1005.2
20260901083036 55 229 0.0 0.0 0.00 0.00 0.00 1 1005.1
20260901081538 54 229 0.0 0.0 0.00 0.00 0.00 1 1005.2
20260901080030 54 229 0.0 0.0 0.00 0.00 0.00 1 1005.1
20260901074522 54 229 0.0 0.0 0.00 0.00 0.00 1 1005.0
20260901073019 55 229 0.0 0.0 0.00 0.00 0.00 1 1005.1
20260901071514 55 229 0.0 0.0 0.00 0.00 0.00 1 1005.1
20260901070009 55 229 0.0 0.0 0.00 0.00 0.00 1 1005.1
20260901064505 55 229 0.0 0.0 0.00 0.00 0.00 1 1005.2
20260901063002 55 229 0.0 0.0 0.00 0.00 0.00 1 1005.3
20260901061557 55 229 0.0 0.0 0.00 0.00 0.00 1 1005.4
20260901060052 56 229 0.0 0.0 0.00 0.00 0.00 2 1005.5
20260901054551 56 229 0.0 0.0 0.00 0.00 0.00 2 1005.7
20260901053051 56 229 0.0 0.0 0.00 0.00 0.00 2 1005.7
20260901051539 56 229 0.0 0.0 0.00 0.00 0.00 1 1005.6
20260901050035 56 229 0.0 0.0 0.00 0.00 0.00 1 1005.8
20260901044530 57 229 0.0 0.0 0.00 0.00 0.00 6 1005.8
20260901043026 57 229 0.0 0.0 0.00 0.00 0.00 7 1005.8
20260901041523 57 229 0.0 0.0 0.00 0.00 0.00 13 1005.7
20260901040018 57 229 0.0 0.0 0.00 0.00 0.00 19 1005.7
20260901034521 58 221 0.0 0.0 0.00 0.00 0.00 27 1005.6
20260901033012 58 122 0.0 0.0 0.00 0.00 0.00 28 1005.5
20260901031508 58 122 0.0 0.0 0.00 0.00 0.00 33 1005.5
20260901030059 59 122 0.0 0.0 0.00 0.00 0.00 39 1005.6
20260901024555 60 122 0.0 0.0 0.00 0.00 0.00 50 1005.7
20260901023050 62 122 0.0 0.0 0.00 0.00 0.00 59 1005.7
20260901021546 64 122 0.0 0.0 0.00 0.00 0.00 63 1005.6
20260901020041 65 122 0.0 0.0 0.00 0.00 0.00 62 1005.7
20260901014539 66 122 0.0 0.0 0.00 0.00 0.00 61 1005.9
20260901013050 67 122 0.0 0.0 0.00 0.00 0.00 61 1005.9
20260901011536 66 122 0.0 0.0 0.00 0.00 0.00 61 1005.9
20260901010024 66 122 0.0 0.0 0.00 0.00 0.00 61 1006.0
20260901004520 67 125 0.0 0.0 0.00 0.00 0.00 61 1006.1
20260901003015 67 124 0.0 0.0 0.00 0.00 0.00 62 1006.2
20260901001515 67 124 0.0 0.0 0.00 0.00 0.00 62 1006.4
20260901000006 67 124 0.0 0.0 0.00 0.00 0.00 62 1006.5
20260831234502 67 124 0.0 0.0 0.00 0.00 0.00 61 1006.5
20260831233056 68 125 0.0 0.0 0.00 0.00 0.00 61 1006.7
20260831231552 69 124 0.0 0.0 0.00 0.00 0.00 59 1006.8
20260831230048 70 125 0.0 0.0 0.00 0.00 0.00 58 1007.0
20260831224543 70 124 0.0 1.0 0.00 0.00 0.00 58 1007.2
20260831223042 71 15 0.0 1.0 0.00 0.00 0.00 55 1007.5
20260831221534 71 334 0.0 1.0 0.00 0.00 0.00 58 1007.5
20260831220031 70 1 0.0 1.0 0.00 0.00 0.00 59 1007.7
20260831214526 70 5 0.0 1.0 0.00 0.00 0.00 58 1007.9
20260831213024 70 75 0.0 1.0 0.00 0.00 0.00 59 1008.1
20260831211517 70 314 0.0 1.0 0.00 0.00 0.00 60 1008.3
20260831210012 70 288 0.0 1.0 0.00 0.00 0.00 58 1008.5
20260831204508 70 23 0.0 1.0 0.00 0.00 0.00 61 1008.5
20260831203004 69 314 0.0 1.0 0.00 0.00 0.00 61 1008.6
20260831201607 67 326 0.0 2.0 0.00 0.00 0.00 62 1008.8
20260831200137 69 72 0.0 1.0 0.00 0.00 0.00 61 1008.9
20260831194557 68 315 0.0 0.0 0.00 0.00 0.00 62 1009.2
20260831193045 67 56 0.0 1.0 0.00 0.00 0.00 62 1009.3
20260831191545 66 13 0.0 1.0 0.00 0.00 0.00 62 1009.5
20260831190040 66 333 0.0 1.0 0.00 0.00 0.00 62 1009.8
20260831184532 66 331 0.0 1.0 0.00 0.00 0.00 62 1009.9
20260831183028 66 332 0.0 1.0 0.00 0.00 0.00 62 1010.0
20260831181528 65 326 0.0 1.0 0.00 0.00 0.00 62 1010.1
20260831180019 64 67 0.0 1.0 0.00 0.00 0.00 57 1010.2
20260831174515 64 72 0.0 1.0 0.00 0.00 0.00 56 1010.3
20260831173010 63 70 0.0 1.0 0.00 0.00 0.00 44 1010.5
20260831171505 62 71 0.0 1.0 0.00 0.00 0.00 34 1010.5
20260831170001 62 75 0.0 1.0 0.00 0.00 0.00 36 1010.7
20260831164557 62 235 0.0 0.0 0.00 0.00 0.00 28 1010.7
20260831163051 62 234 0.0 1.0 0.00 0.00 0.00 36 1010.8
20260831161547 62 234 0.0 0.0 0.00 0.00 0.00 21 1010.9
20260831160043 61 234 0.0 0.0 0.00 0.00 0.00 2 1010.9
20260831154538 60 234 0.0 0.0 0.00 0.00 0.00 1 1011.0
20260831153034 57 237 0.0 0.0 0.00 0.00 0.00 1 1011.0
20260831151529 55 238 0.0 0.0 0.00 0.00 0.00 1 1011.1
20260831150025 54 238 0.0 0.0 0.00 0.00 0.00 1 1011.0
20260831144521 54 237 0.0 0.0 0.00 0.00 0.00 1 1011.1
20260831143018 53 237 0.0 0.0 0.00 0.00 0.00 1 1011.1
20260831141512 0 0.0 0.0 0.00 0.00 0.00 1011.1
20260831140021 0 0.0 0.0 0.00 0.00 0.00 1011.1